User: anonymous   Login
Location: Melbourne
(37.8170°S, 144.9670°E)
Time: 21:07:23
(UTC+10:00)
Language:

CZ-3 R/B - Orbit

View from above orbital plane
View from above orbital plane
View from above satellite
View from above satellite

Ground track
Ground track

The orbit data is extracted from the following two-line orbital elements,

1 29517U 06048B   16204.92660260  .00037755  00000-0  85478-3 0  9998
2 29517  28.4631 314.8836 4475973 126.5659 283.5219  6.65545395145329
Epoch (UTC): 22 July 2016 22:14:18
Eccentricity: 0.4475973
inclination: 28.4631°
perigee height: 217 km
apogee height: 10904 km
right ascension of ascending node: 314.8836°
argument of perigee: 126.5659°
revolutions per day: 6.65545395
mean anomaly at epoch: 283.5219°
orbit number at epoch: 14532

The dashed part of the orbit path shows where the satellite is in the earth's shadow,  

DLR